Regional Weather Roundup
Issued by NWS

Home | Current Version | Previous Version | Graphics & Text | Print | Product List | Glossary On
Versions: 1 2 3 4 5 6 7 8 9 10 11 12 13 14 15 16 17 18 19 20 21 22 23 24 25 26 27 28 29 30 31 32 33 34 35 36 37 38 39 40 41 42 43 44 45 46 47 48 49 50
845
ASUS43 KLMK 231910
RWRKY
KENTUCKY REGIONAL WEATHER ROUNDUP
NATIONAL WEATHER SERVICE LOUISVILLE KY
200 PM EST THU FEB 23 2017

NOTE "FAIR" INDICATES FEW OR NO CLOUDS BELOW 12,000 FEET
WITH NO SIGNIFICANT WEATHER AND/OR OBSTRUCTIONS TO VISIBILITY.

KYZ001>023-026-027-061>063-070>075-232000-
WESTERN AND SOUTH CENTRAL KENTUCKY

CITY           SKY/WX    TMP DP  RH WIND       PRES   REMARKS
PADUCAH        CLOUDY    71  55  56 SW12      29.72F
HENDERSON      CLOUDY    70  55  60 S12       29.72F
OWENSBORO      PTSUNNY   72  58  61 S16       29.73F
HOPKINSVILLE   PTSUNNY   70  57  64 SW15G21   29.76F
BOWLING GREEN  PTSUNNY   71  57  61 S13       29.78F
GLASGOW        CLOUDY    70  56  61 SW8       29.79F
$$

KYZ024-025-028>034-038-045-046-053-232000-
NORTH CENTRAL KENTUCKY

CITY           SKY/WX    TMP DP  RH WIND       PRES   REMARKS
LOUISVILLE/SDF CLOUDY    68  56  65 S8        29.77F
LOUISVILLE/LOU CLOUDY    68  57  68 S9        29.78F
FORT KNOX      CLOUDY    67  57  69 S12       29.76F
$$

KYZ035>037-039>044-047>052-055>060-089>105-232000-
NORTHEAST KENTUCKY

CITY           SKY/WX    TMP DP  RH WIND       PRES   REMARKS
LEXINGTON      CLOUDY    66  56  70 W7        29.81F
COVINGTON      CLOUDY    69  56  62 SW9       29.76F
FRANKFORT      CLOUDY    67  55  65 SW9       29.79F
$$

KYZ054-064>069-076>088-106>120-232000-
SOUTHEAST KENTUCKY

CITY           SKY/WX    TMP DP  RH WIND       PRES   REMARKS
JACKSON        CLOUDY    68  55  63 VRB3      29.84F
LONDON         CLOUDY    68  53  58 SW7       29.83F
SOMERSET       CLOUDY    66  54  63 CALM      29.83F
MIDDLESBORO    PTSUNNY   68  56  64 SE6       29.85F
MONTICELLO     CLOUDY    68  57  68 VRB3      29.83F
$$





USA.gov is the U.S. government's official web portal to all federal, state and local government web resources and services.